Regional Weather Roundup
Issued by NWS Green Bay, WI

Home | Current Version | Previous Version | Graphics & Text | Print | Product List | Glossary Off
Versions: 1 2 3 4 5 6 7 8 9 10 11 12 13 14 15 16 17 18 19 20 21 22 23 24 25 26 27 28 29 30 31 32 33 34 35 36 37 38 39 40 41 42 43 44 45 46 47 48 49 50

000
ASUS43 KGRB 200859
RWRGRB

NORTH-CENTRAL AND NORTHEAST WISCONSIN REGIONAL WEATHER ROUNDUP
NATIONAL WEATHER SERVICE GREEN BAY WI
400 AM CDT SUN APR 20 2014

WIZ005-009-010>012-018-019-201000-
NORTH CENTRAL WISCONSIN

CITY           SKY/WX    TMP DP  RH WIND       PRES   REMARKS
IRONWOOD       CLOUDY    48  37  66 SW8       29.98S
MANITOWISH WTR NOT AVBL
ARBOR VITAE    NOT AVBL
EAGLE RIVER    NOT AVBL
LAND O LAKES   NOT AVBL
RHINELANDER    LGT RAIN  47  37  68 S6        30.07S
PHILLIPS       NOT AVBL
ANTIGO         NOT AVBL
TOMAHAWK       NOT AVBL
MERRILL        NOT AVBL
$$

WIZ013-073-201000-
NORTHEAST WISCONSIN

CITY           SKY/WX    TMP DP  RH WIND       PRES   REMARKS
IRON MOUNTAIN  LGT RAIN  40  38  93 SE6       30.09F FOG
MARINETTE      CLOUDY    43  36  75 S3        30.14S
$$

WIZ017-030-035>037-045-201000-
CENTRAL WISCONSIN

CITY           SKY/WX    TMP DP  RH WIND       PRES   REMARKS
MEDFORD        NOT AVBL
WAUSAU         CLOUDY    50  41  71 S7        30.06F
MOSINEE        NOT AVBL
MARSHFIELD     CLOUDY    57  38  48 S7        30.07R
WISC RAPIDS    CLOUDY    56  36  47 S7        30.09S
STEVENS POINT  NOT AVBL
WAUPACA        NOT AVBL
SHAWANO        NOT AVBL
CLINTONVILLE   NOT AVBL
$$

WIZ038-039-048-051-201000-
FOX VALLEY

CITY           SKY/WX    TMP DP  RH WIND       PRES   REMARKS
NWS GREEN BAY  CLOUDY    51  39  63 S8        30.14S
APPLETON       NOT AVBL
OSHKOSH        LGT RAIN  54  37  52 S18G29    30.13R
FOND DU LAC    CLOUDY    54  37  52 S15       30.13F
$$

WIZ022-050-052-201000-
EAST CENTRAL WISCONSIN

CITY           SKY/WX    TMP DP  RH WIND       PRES   REMARKS
STURGEON BAY   CLOUDY    46  34  61 S13       30.17F
MANITOWOC      NOT AVBL
SHEBOYGAN      MOCLDY    46  34  62 S13       30.17F
$$

LMZ563-521-522-541>543-201000-
LAKESHORE

STATION/POSITION TIME  TEMP    WIND        PRES    VSBY  WAVE
                       AIR SEA DIR/SP/G                  HT/PER
                 (UTC) (F)     (DEG/KT/KT) (MB)    (MI)  (FT/S)
SHEBOYGAN LKSHOR 0800   42     170/ 19/ 20 1022.8F
KEWAUNEE LKSHORE 0800   44     180/ 17/ 20 1022.2F
NORTHPORT PIER   0800   36     140/  7/  8 1022.4S
SISTER BAY LKSHO 0800   41     190/ 18/ 22   N/A
MENOMINEE LKSHOR 0800   36     140/ 11/ 12 1021.2F
$$



USA.gov is the U.S. government's official web portal to all federal, state and local government web resources and services.